{"data":{"norad_id":60943,"intl_designator":"2024-155V","name":"STARLINK-32288","alt_names":[],"object_type":"PAYLOAD","status":"ACTIVE","operator":null,"country":"US","launch_date":"2024-08-31","launch_site_code":"AFWTR","launch_vehicle":null,"mission":null,"orbit_class":"UNKNOWN","rcs_meters":null,"size_class":null,"mass_kg":null,"dimensions":null,"purposes":["comms"],"wikipedia_slug":null,"has_3d_model":false,"image_url":null,"decayed_at":null,"tle_current":{"epoch":"2026-09-21T11:18:30.482496Z","epoch_age_seconds":104658,"freshness":"FRESH","line1":"1 60943U 24155V   26264.47118614 -.00000213  00000+0  48168-5 0  9999","line2":"2 60943  53.1601 296.8957 0001139  79.3530 280.7601 15.34387145116314","mean_motion":15.34387145,"eccentricity":0.0001139,"inclination_deg":53.1601,"raan_deg":296.8957,"arg_perigee_deg":79.353,"mean_anomaly_deg":280.7601,"bstar":4.8168e-6,"rev_number":11631,"period_min":93.848544332011,"perigee_km":461.96227218767,"apogee_km":463.52062429818,"semimajor_km":6840.8784482429,"source":"CELESTRAK","updated_at":"2026-09-22T09:00:49.293497Z"}}}